Simultaneous Nadir Overpasses (SNOs) Predictions

Prediction of SNOs between NOAA-20 and NOAA-19 Satellite Orbit:

Table of predicted SNOs for the next 14.0 days since TLE Epoch: 3/5/2022
Index Date (NOAA-20) Time (NOAA-20) Lat,Lon (NOAA-20) SZA (NOAA-20 ) Date (NOAA-19) Time (NOAA-19) Lat,Lon (NOAA-19) SZA (NOAA-19 ) Distance(km) Time Diff (sec)
1 03/11/2022 02:59:08 77.04, 114.82 81.75 03/11/2022 02:57:58 77.02, 113.00 81.93 45.33 70
2 03/11/2022 03:49:57 -77.23, -78.68 98.02 03/11/2022 03:48:53 -77.24, -78.73 97.98 1.88 64
3 03/11/2022 04:40:43 77.26, 88.52 82.01 03/11/2022 04:39:53 77.23, 88.47 82.01 2.86 50
4 03/11/2022 05:31:28 -77.27,-104.24 97.99 03/11/2022 05:30:53 -77.24,-104.22 98.01 3.29 35
5 03/11/2022 06:22:13 77.26, 63.14 81.98 03/11/2022 06:21:52 77.28, 63.18 82.00 2.32 21
6 03/11/2022 07:12:58 -77.27,-129.62 98.02 03/11/2022 07:12:52 -77.29,-129.51 98.01 3.28 6
7 03/11/2022 08:03:43 77.26, 37.76 81.95 03/11/2022 08:03:52 77.28, 37.70 81.97 2.56 9
8 03/11/2022 08:54:28 -77.28,-155.00 98.04 03/11/2022 08:54:52 -77.29,-154.99 98.04 1.77 24
9 03/11/2022 09:45:14 77.30, 12.19 81.98 03/11/2022 09:45:52 77.28, 12.21 81.95 2.57 38
10 03/11/2022 10:35:58 -77.28, 179.62 98.07 03/11/2022 10:36:52 -77.29, 179.53 98.07 2.89 54
11 03/11/2022 11:26:44 77.30, -13.19 81.96 03/11/2022 11:27:52 77.28, -13.28 81.92 3.13 68
12 03/11/2022 12:17:37 -77.66, 152.50 97.60 03/11/2022 12:18:44 -77.62, 155.64 97.93 74.94 67



Historial Predications of SNOs between NOAA-20 and NOAA-19
